Find Starlink 32441

NORAD ID: 61668 Int'l Des: 2024-193 Owner: SPXS Country: US Constellation: starlink operational
LEOCIRCULAR

現在のビュー

3D地球を読み込み中...

About Starlink 32441

Starlink 32441 (NORAD 61668) is a starlink constellation satellite (v2 mini) launched Oct 26, 2024 by SPXS of US. It operates in LEO, CIRCULAR orbit with a mass of 730.00 kg.

Starlink 32441について

説明を読み込み中...

次回通過

Passes for default location (London). Set your location on the main map for personalized predictions.

高度履歴

Loading altitude history...

軌道要素

1 61668U 24193H 26168.80783537 .00002762 00000-0 10530-3 0 9999
2 61668 53.1621 346.0804 0001183 85.6949 274.4187 15.30210135 91853
Epoch: Jun 17, 2026 • Age: 6 hours

現在のステータス

高度 481.2 km
速度 7.62 km/s
衛星直下点 -20.18°S, 100.16°W
打ち上げ日 Oct 26, 2024
運用期間 1.6 years
タイプ internet

技術仕様

分類 Payload
質量 730.00 kg
乾燥質量 700.00 kg
総質量 730.00 kg
長さ 0.30 m
直径 4.10 m
スパン 29.00 m
形状 Box + pan
製造者 SPXS
バスタイプ Starlink V2M
フェーズステータス In Orbit
所有者/国 SPXS/US

Most Searched